Location: Beccas
(43.4309°N, 0.1528°E)
Time: 19:51:47
(UTC+00:00)

Cosmos 2123 Rocket - Pass Details

Date: 15 October 2021
Orbit: 961 x 992 km, 82.9° (Epoch: 29 November)

Event Time Altitude Azimuth Distance (km) Brightness Sun altitude
Rises 19:18:23 0° 350° (N) 3,718 7.3 -22.9°
Reaches altitude 10° 19:20:56 10° 349° (N) 2,765 6.6 -23.4°
Maximum altitude 19:27:16 77° 265° (W) 1,020 4.1 -24.5°
Drops below altitude 10° 19:33:32 10° 181° (S) 2,737 6.2 -25.6°
Sets 19:36:02 0° 179° (S) 3,678 6.9 -26.1°
